Regional Weather Roundup
Issued by NWS

Home | Current Version | Previous Version | Text Only | Print | Product List | Glossary Off
Versions: 1 2 3 4 5 6 7 8 9 10 11 12 13 14 15 16 17 18 19 20 21 22 23 24 25 26 27 28 29 30 31 32 33 34 35 36 37 38 39 40 41 42 43 44 45 46 47 48 49 50

000
ASUS43 KOAX 050810
RWRNE

WEATHER ROUNDUP FOR NEBRASKA
NATIONAL WEATHER SERVICE OMAHA NE
300 AM CDT TUE MAY 05 2015

NOTES: SATELLITE DATA IS BEING USED TO AUGMENT CLOUD COVER ABOVE
       12000 FEET.
       "FAIR" INDICATES FEW OR NO CLOUDS BELOW 12,000 FEET WITH NO
       SIGNIFICANT WEATHER AND/OR OBSTRUCTIONS TO VISIBILITY.

  * THESE STATIONS DO NOT REPORT WEATHER SUCH AS RAIN...SNOW OR FOG.

NEZ001>004-019>022-054>056-050900-
NEBRASKA PANHANDLE

CITY           SKY/WX    TMP DP  RH WIND       PRES   REMARKS
SCOTTSBLUFF    CLOUDY    48  43  82 SE9       30.07F
ALLIANCE       CLOUDY    48  42  80 S12       30.06F
CHADRON        PTCLDY    44  37  76 S5        30.05F
KIMBALL        CLOUDY    44  43  98 CALM      30.04F FOG
SIDNEY         CLOUDY    45  44  97 SE6       30.07F FOG
$$

NEZ057>060-069>072-079>082-050900-
SOUTHWEST NEBRASKA

CITY           SKY/WX    TMP DP  RH WIND       PRES   REMARKS
NORTH PLATTE   CLOUDY    51  50  96 E3        30.06F
IMPERIAL       FOG       49  47  93 E5        30.07S VSB 1
LEXINGTON      FOG       54  53  97 E5        30.06S VSB 1/2
MCCOOK         CLOUDY    53  52  96 NE3       30.06F FOG
OGALLALA       CLOUDY    49  48  97 E3        30.06F FOG
$$

NEZ005>010-023>029-035>040-094-050900-
NORTH CENTRAL NEBRASKA

CITY           SKY/WX    TMP DP  RH WIND       PRES   REMARKS
VALENTINE      CLOUDY    47  39  74 CALM      30.10R
AINSWORTH      CLOUDY    53  46  75 SE3       30.09S
BROKEN BOW     FOG       53  52  96 E5        30.06F VSB 1/2
O`NEILL        CLOUDY    54  51  88 E5        30.09F
ORD            CLOUDY    54  53  97 E6        30.05F FOG
THEDFORD       CLOUDY    54  49  85 SE3       30.09S
$$

NEZ041-046>049-061>064-073>077-083>087-050900-
SOUTH CENTRAL NEBRASKA

CITY           SKY/WX    TMP DP  RH WIND       PRES   REMARKS
GRAND ISLAND   FOG       55  55 100 NE6       30.06F VSB 1/4
AURORA         FOG       56  56 100 E6        30.05S VSB 1/4
HASTINGS       LGT RAIN  56  56 100 E3        30.05S VSB 1/4
HEBRON         DRIZZLE   61  58  90 SW3       30.05S
HOLDREGE       DRIZZLE   54  53  97 E6        30.05S
KEARNEY *      CLOUDY    54  52  94 E8        30.06S VSB 1/2
YORK           FOG       57  57 100 CALM      30.05F VSB 1/4
$$

NEZ011>018-030>034-042>045-050900-
NORTHEAST NEBRASKA

CITY           SKY/WX    TMP DP  RH WIND       PRES   REMARKS
NORFOLK        CLOUDY    55  53  93 NE6       30.07F
ALBION         LGT RAIN  54  52  93 E3        30.07F
BLAIR          CLOUDY    57  55  94 NE8       30.05F FOG
COLUMBUS *     CLOUDY    55  50  82 NE5       30.07F
FREMONT        CLOUDY    57  56  95 NE6       30.05F FOG
TEKAMAH        LGT RAIN  57  55  93 N7        30.06F FOG
WAYNE          CLOUDY    56  51  84 NE5       30.09S
$$

NEZ050>053-065>068-078-088>093-050900-
SOUTHEAST NEBRASKA

CITY           SKY/WX    TMP DP  RH WIND       PRES   REMARKS
LINCOLN        CLOUDY    61  59  93 SW6       30.04F
OMAHA EPPLEY   CLOUDY    59  57  93 N9        30.05F
BEATRICE       CLOUDY    60  59  96 SW3       30.03F
FALLS CITY     MOCLDY    60  60 100 S6        30.05F
NEBRASKA CITY  CLOUDY    61  60  97 SW10      30.03F
PLATTSMOUTH    CLOUDY    60  58  91 S5        30.04F
$$

NEZ044-045-051>053-067-050900-
OMAHA AREA

CITY           SKY/WX    TMP DP  RH WIND       PRES   REMARKS
OMAHA EPPLEY   CLOUDY    59  57  93 N9        30.05F
BLAIR          CLOUDY    57  55  94 NE8       30.05F FOG
FREMONT        CLOUDY    57  56  95 NE6       30.05F FOG
MILLARD        CLOUDY    61  59  93 CALM      30.04F
OFFUTT AFB     CLOUDY    62  59  91 CALM      30.03F
PLATTSMOUTH    CLOUDY    60  58  91 S5        30.04F
$$



USA.gov is the U.S. government's official web portal to all federal, state and local government web resources and services.